Location: Eaton Estates
(41.3089°N, 82.0057°W)
Time: 13:04:07
(UTC+00:00)

Aureole 3 - Pass Details

Date: 17 June 2021
Orbit: 382 x 1227 km, 82.5° (Epoch: 26 July)

Event Time Altitude Azimuth Distance (km) Brightness Sun altitude
Rises 05:33:30 0° 359° (N) 2,520 8.1 -25.3°
Reaches altitude 10° 05:35:28 10° 7° (N) 1,726 6.9 -25.3°
Enters shadow 05:38:48 44° 68° (ENE) 803 4.2 -25.3°
